Monroe, Wisconsin, United States (53566)
Lat: 42.60N, Lon: 89.64W
Wx Zone: WIZ068
Local Info
Past Weather Observations for Today

NOTE: This archive is for the closest National Weather Service station to Monroe. Information may differ from the station used for current weather conditions.

Time Weather Temperature Dewpoint Humidity Pressure Winds Precip Visibility
11:55
Clear
52°F / 11°C 32°F / 0°C 47% 30.33 in
(1027 mb)
NE 3.5 mph
(NE 6 kph)
- 10SM
11:35
Clear
52°F / 11°C 32°F / 0°C 47% 30.33 in
(1027 mb)
N 3.5 mph
(N 6 kph)
- 10SM
11:15
Clear
50°F / 10°C 32°F / 0°C 50% 30.33 in
(1027 mb)
NNW 5.8 mph
(NNW 9 kph)
- 10SM
10:55
Clear
48°F / 9°C 32°F / 0°C 54% 30.33 in
(1027 mb)
N 5.8 mph
(N 9 kph)
- 10SM
10:40
Clear
48°F / 9°C 32°F / 0°C 54% 30.33 in
(1027 mb)
N 4.6 mph
(N 7 kph)
- 10SM
10:20
Clear
46°F / 8°C 32°F / 0°C 57% 30.36 in
(1028 mb)
N 4.6 mph
(N 7 kph)
- 10SM
09:55
Clear
45°F / 7°C 32°F / 0°C 61% 30.36 in
(1028 mb)
N 8.1 mph
(N 13 kph)
- 10SM
09:35
Clear
45°F / 7°C 32°F / 0°C 61% 30.36 in
(1028 mb)
NNW 4.6 mph
(NNW 7 kph)
- 10SM
09:15
Clear
45°F / 7°C 34°F / 1°C 66% 30.36 in
(1028 mb)
N 4.6 mph
(N 7 kph)
- 10SM
08:55
Clear
43°F / 6°C 36°F / 2°C 76% 30.36 in
(1028 mb)
N 5.8 mph
(N 9 kph)
- 10SM
08:35
Clear
41°F / 5°C 36°F / 2°C 81% 30.36 in
(1028 mb)
NE 6.9 mph
(NE 11 kph)
- 10SM
08:15
Clear
41°F / 5°C 37°F / 3°C 87% 30.36 in
(1028 mb)
NE 10.4 mph
(NE 17 kph)
- 10SM
07:55
Clear
39°F / 4°C 37°F / 3°C 93% 30.36 in
(1028 mb)
NE 6.9 mph
(NE 11 kph)
- 10SM
07:35
Clear
37°F / 3°C 37°F / 3°C 100% 30.36 in
(1028 mb)
N 8.1 mph
(N 13 kph)
- 10SM
07:15
Clear
37°F / 3°C 37°F / 3°C 100% 30.33 in
(1027 mb)
N 10.4 mph
(N 17 kph)
- 10SM
06:55
Clear
36°F / 2°C 36°F / 2°C 100% 30.33 in
(1027 mb)
N 9.2 mph
(N 15 kph)
- 10SM
06:35
Clear
34°F / 1°C 34°F / 1°C 100% 30.33 in
(1027 mb)
N 8.1 mph
(N 13 kph)
- 10SM
06:15
Clear
N/A N/A N/A 30.33 in
(1027 mb)
N 6.9 mph
(N 11 kph)
- 10SM
05:55
Clear
N/A N/A N/A 30.33 in
(1027 mb)
N 5.8 mph
(N 9 kph)
- 7SM
05:35
Clear
N/A N/A N/A 30.3 in
(1026 mb)
N 5.8 mph
(N 9 kph)
- 7SM
05:15
Clear
N/A N/A N/A 30.3 in
(1026 mb)
N 4.6 mph
(N 7 kph)
- 10SM
04:55
Clear
N/A N/A N/A 30.3 in
(1026 mb)
N 6.9 mph
(N 11 kph)
- 10SM
04:35
Clear
N/A N/A N/A 30.3 in
(1026 mb)
N 6.9 mph
(N 11 kph)
- 7SM
04:15
Clear
N/A N/A N/A 30.3 in
(1026 mb)
N 6.9 mph
(N 11 kph)
- 10SM
03:55
Clear
N/A N/A N/A 30.3 in
(1026 mb)
N 8.1 mph
(N 13 kph)
- 10SM
03:35
Clear
N/A N/A N/A 30.27 in
(1025 mb)
N 8.1 mph
(N 13 kph)
- 10SM
03:15
Clear
N/A N/A N/A 30.27 in
(1025 mb)
N 8.1 mph
(N 13 kph)
- 7SM
02:55
Clear
N/A N/A N/A 30.27 in
(1025 mb)
N 6.9 mph
(N 11 kph)
- 10SM
02:35
Clear
N/A N/A N/A 30.27 in
(1025 mb)
N 8.1 mph
(N 13 kph)
- 10SM
02:15
Clear
N/A N/A N/A 30.27 in
(1025 mb)
N 8.1 mph
(N 13 kph)
- 10SM
01:55
Clear
N/A N/A N/A 30.27 in
(1025 mb)
N 6.9 mph
(N 11 kph)
- 10SM
01:35
Clear
N/A N/A N/A 30.27 in
(1025 mb)
N 8.1 mph
(N 13 kph)
- 10SM
01:15
Clear
N/A N/A N/A 30.27 in
(1025 mb)
N 6.9 mph
(N 11 kph)
- 10SM
00:55
Clear
N/A N/A N/A 30.27 in
(1025 mb)
N 6.9 mph
(N 11 kph)
- 10SM
00:35
Clear
34°F / 1°C 34°F / 1°C 100% 30.27 in
(1025 mb)
NNE 8.1 mph
(NNE 13 kph)
- 10SM
00:15
Clear
36°F / 2°C 36°F / 2°C 100% 30.27 in
(1025 mb)
NNE 8.1 mph
(NNE 13 kph)
- 10SM
Time Weather Temperature Dewpoint Humidity Pressure Winds Precip Visibility


Weather for websites

WeatherForYou.com, LLC is not responsible for any damages or problems caused by this service. Current weather conditions are obtained from the closest station including government and personal stations which may have varying degrees of accuracy. Weather forecasts are derived from the NOAA NDFD. Like all things, this site belongs to Jesus Christ... He just trusts me to maintain it. If you have any questions or comments email webmaster@weatherforyou.com

Copyright © 2014, WeatherForYou.com LLC. All rights reserved.